Chicago, Illinois, United States (60601)
Lat: 41.85N, Lon: 87.65W
Wx Zone: ILZ014
Local Info
Past Weather Observations for Tuesday, January 27, 2015

NOTE: This archive is for the closest National Weather Service station to Chicago. Information may differ from the station used for current weather conditions.

Click here for Long-term Archive

Time Weather Temperature Dewpoint Humidity Pressure Winds Precip Visibility
23:53
Mostly Cloudy
27°F / -3°C 19°F / -7°C 74% 30.27 in
(1025 mb)
Calm - 10SM
22:53
Partly Cloudy
25°F / -4°C 18°F / -8°C 74% 30.27 in
(1025 mb)
Calm - 10SM
21:53
Partly Cloudy
28°F / -2°C 18°F / -8°C 64% 30.27 in
(1025 mb)
Calm - 10SM
20:53
Partly Cloudy
28°F / -2°C 19°F / -7°C 69% 30.24 in
(1024 mb)
ENE 5.8 mph
(ENE 9 kph)
- 10SM
19:53
Partly Cloudy
27°F / -3°C 18°F / -8°C 69% 30.24 in
(1024 mb)
NE 5.8 mph
(NE 9 kph)
- 10SM
18:53
Partly Cloudy
28°F / -2°C 18°F / -8°C 64% 30.24 in
(1024 mb)
NNE 6.9 mph
(NNE 11 kph)
- 10SM
17:53
Partly Cloudy
28°F / -2°C 18°F / -8°C 64% 30.24 in
(1024 mb)
NE 8.1 mph
(NE 13 kph)
- 10SM
16:53
Partly Cloudy
28°F / -2°C 18°F / -8°C 64% 30.24 in
(1024 mb)
NNE 8.1 mph
(NNE 13 kph)
- 10SM
15:53
Partly Cloudy
30°F / -1°C 18°F / -8°C 59% 30.21 in
(1023 mb)
NE 12.7 mph
(NE 20 kph)
- 10SM
14:53
Partly Cloudy
32°F / 0°C 19°F / -7°C 60% 30.21 in
(1023 mb)
NNE 10.4 mph
(NNE 17 kph)
- 10SM
13:53
Partly Cloudy
32°F / 0°C 19°F / -7°C 60% 30.18 in
(1022 mb)
NE 8.1 mph
(NE 13 kph)
- 10SM
12:53
Partly Cloudy
32°F / 0°C 19°F / -7°C 60% 30.18 in
(1022 mb)
NE 5.8 mph
(NE 9 kph)
- 10SM
11:53
Mostly Cloudy
30°F / -1°C 19°F / -7°C 64% 30.18 in
(1022 mb)
NE 9.2 mph
(NE 15 kph)
- 10SM
10:53
Overcast
30°F / -1°C 19°F / -7°C 64% 30.15 in
(1021 mb)
NE 9.2 mph
(NE 15 kph)
- 10SM
10:29
Overcast
30°F / -1°C 19°F / -7°C 64% 30.15 in
(1021 mb)
NE 9.2 mph
(NE 15 kph)
- 10SM
09:53
Overcast
30°F / -1°C 19°F / -7°C 64% 30.15 in
(1021 mb)
ENE 10.4 mph
(ENE 17 kph)
- 10SM
09:44
Overcast
30°F / -1°C 19°F / -7°C 64% 30.15 in
(1021 mb)
NE 11.5 mph
(NE 19 kph)
- 10SM
09:22
Overcast
30°F / -1°C 21°F / -6°C 69% 30.12 in
(1020 mb)
ENE 11.5 mph
(ENE 19 kph)
- 10SM
08:53
Overcast
30°F / -1°C 21°F / -6°C 69% 30.12 in
(1020 mb)
ENE 11.5 mph
(ENE 19 kph)
- 10SM
07:53
Overcast
30°F / -1°C 23°F / -5°C 75% 30.09 in
(1019 mb)
ENE 10.4 mph
(ENE 17 kph)
- 10SM
07:41
Overcast
30°F / -1°C 25°F / -4°C 80% 30.09 in
(1019 mb)
ENE 10.4 mph
(ENE 17 kph)
- 10SM
06:53
Overcast
Hazy
30°F / -1°C 25°F / -4°C 80% 30.06 in
(1018 mb)
ENE 8.1 mph
(ENE 13 kph)
- 5SM
06:38
Overcast
Hazy
30°F / -1°C 25°F / -4°C 80% 30.06 in
(1018 mb)
ENE 8.1 mph
(ENE 13 kph)
- 4SM
05:53
Overcast
Fog And Mist
28°F / -2°C 25°F / -4°C 86% 30.04 in
(1017 mb)
ENE 6.9 mph
(ENE 11 kph)
- 3SM
04:53
Overcast
Fog And Mist
28°F / -2°C 25°F / -4°C 86% 30.01 in
(1016 mb)
ENE 4.6 mph
(ENE 7 kph)
- 2 1/2SM
04:13
Overcast
Fog And Mist
28°F / -2°C 25°F / -4°C 86% 30.01 in
(1016 mb)
NE 3.5 mph
(NE 6 kph)
- 2 1/2SM
03:53
Overcast
Fog And Mist
28°F / -2°C 27°F / -3°C 93% 29.98 in
(1015 mb)
Calm 0.00 in
(0.00 mm)
3SM
02:53
Overcast
Light Snow
28°F / -2°C 25°F / -4°C 86% 29.98 in
(1015 mb)
SE 3.5 mph
(SE 6 kph)
0.00 in
(0.00 mm)
3SM
02:44
Overcast
Light Snow
28°F / -2°C 25°F / -4°C 86% 29.95 in
(1014 mb)
SE 3.5 mph
(SE 6 kph)
0.00 in
(0.00 mm)
3SM
01:53
Overcast
Light Snow
28°F / -2°C 25°F / -4°C 86% 29.95 in
(1014 mb)
E 4.6 mph
(E 7 kph)
0.00 in
(0.00 mm)
3SM
00:53
Overcast
Light Snow
28°F / -2°C 25°F / -4°C 86% 29.95 in
(1014 mb)
E 3.5 mph
(E 6 kph)
0.00 in
(0.00 mm)
3SM
00:21
Overcast
Light Snow
28°F / -2°C 25°F / -4°C 86% 29.92 in
(1013 mb)
SE 5.8 mph
(SE 9 kph)
0.00 in
(0.00 mm)
3SM
Time Weather Temperature Dewpoint Humidity Pressure Winds Precip Visibility


Weather for websites

WeatherForYou.com, LLC is not responsible for any damages or problems caused by this service. Current weather conditions are obtained from the closest station including government and personal stations which may have varying degrees of accuracy. Weather forecasts are derived from the NOAA NDFD. Like all things, this site belongs to Jesus Christ... He just trusts me to maintain it. If you have any questions or comments email webmaster@weatherforyou.com

Copyright © 2015, WeatherForYou.com LLC. All rights reserved.